Weather History for Cheyenne, WY

Change the Weather History Date:

Tuesday, January 1, 2013

  Actual Average Record
Temperature  
Mean Temperature 14 °F 28 °F  
Max Temperature 24 °F 39 °F 60 °F (1882)
Min Temperature 3 °F 18 °F -18 °F (1911)
Degree Days  
Heating Degree Days 51 37  
Month to date heating degree days 51 37  
Since 1 July heating degree days 2753 2940  
Cooling Degree Days 0 0  
Month to date cooling degree days 0 0  
Year to date cooling degree days 0 0  
Moisture  
Dew Point 4 °F    
Average Humidity 64    
Maximum Humidity 83    
Minimum Humidity 45    
Precipitation  
Precipitation 0.00 in 0.01 in 0.35 in (1907)
Month to date precipitation 0.00 0.01  
Year to date precipitation 0.00 0.01  
Snow  
Snow 0.00 in 0.20 in 2.90 in (1976)
Month to date snowfall 0.0 0.2  
Since 1 July snowfall 25.4 22.9  
Snow Depth 1.00 in    
Sea Level Pressure  
Sea Level Pressure 30.21 in    
Wind  
Wind Speed 13 mph (WNW)    
Max Wind Speed 24 mph    
Max Gust Speed 32 mph    
Visibility 10 miles    
Events      
T = Trace of Precipitation, MM = Missing Value Source: NWS Daily Summary

Daily Weather History Graph

Daily Weather History Graph

Search for Another Location

Airport:

Trip Planner

Search our weather history database for the weather conditions in past years. The results will help you decide how hot, cold, wet, or windy it might be!

Date:

Astronomy

Jan. 01, 2013 Rise Set
Actual Time 7:24 AM MST 4:41 PM MST
Civil Twilight 6:53 AM MST 5:12 PM MST
Nautical Twilight 6:19 AM MST 5:47 PM MST
Astronomical Twilight 5:45 AM MST 6:20 PM MST
Moon 9:17 PM MST 9:35 AM MST
Length of Visible Light 10h 18m
Length of Day
9h 16m
Waning Gibbous, 83% of the Moon is Illuminated
Jan 1
Waning Gibbous
Jan 4
Last Quarter
Jan 11
New
Jan 18
First Quarter
Jan 26
Full

Hourly Weather History & Observations

Time (MST) Temp. Windchill Dew Point Humidity Pressure Visibility Wind Dir Wind Speed Gust Speed Precip Events Conditions
12:53 AM 5.0 °F -5.6 °F -0.9 °F 76% 30.21 in 10.0 mi WSW 5.8 mph - N/A   Overcast
1:53 AM 8.6 °F 2.0 °F 1.4 °F 73% 29.98 in 10.0 mi SSW 3.5 mph - N/A   Overcast
2:53 AM 8.1 °F 1.4 °F 1.0 °F 73% 30.21 in 10.0 mi West 3.5 mph - N/A   Clear
3:53 AM 10.0 °F -1.9 °F 1.9 °F 70% 30.20 in 10.0 mi WNW 8.1 mph - N/A   Clear
4:53 AM 12.0 °F 1.5 °F 1.9 °F 64% 30.22 in 10.0 mi West 6.9 mph - N/A   Clear
5:53 AM 15.1 °F -1.1 °F 3.0 °F 59% 30.22 in 10.0 mi NW 17.3 mph 24.2 mph N/A   Clear
6:53 AM 12.0 °F -5.1 °F 1.9 °F 64% 30.27 in 10.0 mi NW 17.3 mph 23.0 mph N/A   Clear
7:53 AM 12.9 °F -3.9 °F 1.0 °F 59% 30.32 in 10.0 mi NW 17.3 mph 23.0 mph N/A   Clear
8:53 AM 14.0 °F 1.2 °F 1.0 °F 56% 30.31 in 10.0 mi WNW 10.4 mph - N/A   Clear
9:53 AM 19.0 °F 5.6 °F 3.9 °F 52% 30.31 in 10.0 mi WNW 13.8 mph - N/A   Clear
10:53 AM 21.9 °F 6.9 °F 5.0 °F 48% 30.29 in 10.0 mi WNW 19.6 mph 28.8 mph N/A   Clear
11:53 AM 23.0 °F 9.2 °F 5.0 °F 46% 30.28 in 10.0 mi WNW 17.3 mph 26.5 mph N/A   Clear
12:53 PM 23.0 °F 8.3 °F 6.1 °F 48% 30.25 in 10.0 mi NW 19.6 mph 27.6 mph N/A   Clear
1:53 PM 23.0 °F 10.1 °F 7.0 °F 50% 30.21 in 10.0 mi WNW 15.0 mph 26.5 mph N/A   Clear
2:53 PM 23.0 °F 9.6 °F 7.0 °F 50% 30.20 in 10.0 mi WNW 16.1 mph 23.0 mph N/A   Clear
3:53 PM 21.9 °F 10.4 °F 6.1 °F 51% 30.20 in 10.0 mi WNW 11.5 mph 19.6 mph N/A   Clear
4:53 PM 19.0 °F 7.5 °F 3.9 °F 52% 30.20 in 10.0 mi WNW 10.4 mph - N/A   Clear
5:53 PM 16.0 °F 3.6 °F 3.0 °F 57% 30.22 in 10.0 mi NW 10.4 mph - N/A   Clear
6:09 PM 15.8 °F - 3.2 °F 58% 30.01 in 10.0 mi North - - N/A   Clear
6:11 PM 17.6 °F - 3.2 °F 53% 30.01 in 10.0 mi North - - N/A   Clear
6:17 PM 17.6 °F 5.0 °F 1.4 °F 49% 30.01 in 10.0 mi WNW 11.5 mph - N/A   Clear
6:53 PM 10.0 °F -3.7 °F -0.0 °F 64% 30.30 in 10.0 mi West 10.4 mph - N/A   Clear
7:53 PM 16.0 °F 2.3 °F 1.9 °F 54% 30.25 in 10.0 mi WNW 12.7 mph 21.9 mph N/A   Clear
8:53 PM 16.0 °F 1.1 °F 3.0 °F 57% 30.26 in 10.0 mi WNW 15.0 mph 23.0 mph N/A   Mostly Cloudy
9:53 PM 19.9 °F 5.2 °F 8.1 °F 60% 30.22 in 10.0 mi NW 17.3 mph 25.3 mph N/A   Overcast
10:53 PM 19.9 °F 6.7 °F 9.0 °F 62% 30.22 in 10.0 mi NW 13.8 mph 24.2 mph N/A   Overcast
11:53 PM 21.0 °F 6.6 °F 10.0 °F 63% 30.23 in 10.0 mi NW 17.3 mph 28.8 mph N/A   Overcast